Regional Weather Roundup
Issued by NWS

Home | Current Version | Previous Version | Graphics & Text | Print | Product List | Glossary On
Versions: 1 2 3 4 5 6 7 8 9 10 11 12 13 14 15 16 17 18 19 20 21 22 23 24 25 26 27 28 29 30 31 32 33 34 35 36 37 38 39 40 41 42 43 44 45 46 47 48 49 50
000
ASUS43 KDMX 290603
RWRIA

WEATHER ROUNDUP FOR IOWA
NATIONAL WEATHER SERVICE DES MOINES IA
100 AM CDT MON AUG 29 2016

NOTE: "FAIR" INDICATES FEW OR NO CLOUDS BELOW 12,000 FEET WITH NO
SIGNIFICANT WEATHER AND/OR OBSTRUCTIONS TO VISIBILITY.

* - THESE STATIONS ARE NOT NWS STATIONS...THUS NOT UNDER NWS
QUALITY CONTROL.  THEY ALSO DO NOT REPORT WEATHER SUCH
AS PRECIPITATION OR FOG.

IAZ001>003-012>014-020>022-031>034-043>046-290700-
   NORTHWEST IOWA

CITY           SKY/WX    TMP DP  RH WIND       PRES   REMARKS
CARROLL *        N/A     66  66 100 CALM      30.16F
CHEROKEE *       N/A     66  65  99 S6        30.14S
DENISON *        N/A     66  64  94 E6        30.14S
LE MARS *        N/A     68  64  88 SW5       30.13S
ORANGE CITY *    N/A     66  63  88 S3        30.13F
SHELDON *        N/A     64  64 100 SE5       30.12S
SIOUX CITY       N/A     69  65  86 S7        30.13R
6HR MIN TEMP:  69; 6HR MAX TEMP:  84;

SPENCER          N/A     66  63  90 SE7       30.15S
6HR MIN TEMP:  65; 6HR MAX TEMP:  82;

STORM LAKE *     N/A     66  64  94 S8        30.16S
$$

IAZ055>058-069>071-079>083-090>094-290700-
   SOUTHWEST IOWA

CITY           SKY/WX    TMP DP  RH WIND       PRES   REMARKS
ATLANTIC *     MOCLDY    68  66  94 CALM      30.16S
AUDUBON *        N/A     66  64  94 SE3       30.18S
CLARINDA *       N/A     70  68  94 MISG      30.17S
COUNCIL BLFS * CLOUDY    70  68  94 E6        30.16R
CRESTON *      CLOUDY    70  68  94 E3        30.18F
HARLAN  *        N/A     68  66  94 CALM      30.20S
LAMONI         CLOUDY    69  69 100 CALM      30.17S FOG
6HR MIN TEMP:  69; 6HR MAX TEMP:  72;

RED OAK *      CLOUDY    70  68  94 E7        30.16S
SHENANDOAH *   CLOUDY    70 -38   1 NE8       30.15R
$$

IAZ047>049-059>061-072>074-084-290700-
   CENTRAL IOWA

CITY           SKY/WX    TMP DP  RH WIND       PRES   REMARKS
AMES             N/A     67  67 100 SE7       30.15F
6HR MIN TEMP:  66; 6HR MAX TEMP:  79;

ANKENY *         N/A    N/A N/A N/A MISG        N/A
BOONE *          N/A     70  66  88 SE6       30.15F
CHARITON *       N/A     72  70  94 MISG      30.17S
DES MOINES       N/A     73  69  87 SE6       30.15F THUNDER
6HR MIN TEMP:  72; 6HR MAX TEMP:  76;

GRINNELL*        N/A     71  68  91 CALM      30.17F
KNOXVILLE *    MOCLDY    72  70  94 SE7       30.15F
MARSHALLTOWN     N/A     71  69  93 SE3       30.16F
6HR MIN TEMP:  69; 6HR MAX TEMP:  80;

NEWTON *         N/A     72  72 100 CALM      30.15F
PELLA *          N/A     71  69  92 S5        30.16F
PERRY *          N/A     67  67  99 CALM      30.16F
$$

IAZ004>006-015-016-023>025-035-036-290700-
   NORTH CENTRAL IOWA

CITY           SKY/WX    TMP DP  RH WIND       PRES   REMARKS
ALGONA *         N/A     68  66  94 S3        30.16F
ESTHERVILLE      N/A     67  66  97 S8        30.15R
6HR MIN TEMP:  65; 6HR MAX TEMP:  79;

FORT DODGE *     N/A     66  64  94 SE3       30.16F
MASON CITY       N/A     69  69 100 S6        30.18F
6HR MIN TEMP:  69; 6HR MAX TEMP:  81;

FOREST CITY *    N/A    N/A N/A N/A MISG        N/A
WEBSTER CITY *   N/A     68  66  94 S6        30.14F
IOWA FALLS *     N/A     71  69  95 S5        30.18F
$$

IAZ007>011-017>019-026>030-037>042-050>054-066-290700-
   NORTHEAST IOWA

CITY           SKY/WX    TMP DP  RH WIND       PRES   REMARKS
CEDAR RAPIDS     N/A     68  68 100 E5        30.18R
6HR MIN TEMP:  67; 6HR MAX TEMP:  81;

CHARLES CITY *   N/A     70  70 100 S5        30.18F
CLINTON *        N/A     71  70  96 E7        30.21R
DECORAH *        N/A     68  68 100 S3        30.18S
DUBUQUE          N/A     67  65  93 CALM      30.20F
6HR MIN TEMP:  67; 6HR MAX TEMP:  76;

MONTICELLO *     N/A     66  64  94 CALM      30.19S
OELWEIN *        N/A     66  66 100 SE5       30.19S
WATERLOO         N/A     69  65  86 S3        30.16S
6HR MIN TEMP:  69; 6HR MAX TEMP:  81;

$$

IAZ064-065-067-068-078-290700-
   EAST CENTRAL IOWA

CITY           SKY/WX    TMP DP  RH WIND       PRES   REMARKS
DAVENPORT        N/A     71  69  93 SE8       30.20R
6HR MIN TEMP:  71; 6HR MAX TEMP:  74; 6HR PCP:  0.16;

IOWA CITY        N/A     71  68  90 CALM      30.19R
6HR MIN TEMP:  69; 6HR MAX TEMP:  85; 6HR PCP:  1.64;

MT. PLEASANT * CLOUDY    73  73 100 S3        30.16S FOG
QUAD CITIES      N/A     72  68  87 E7        30.19R
6HR MIN TEMP:  72; 6HR MAX TEMP:  75; 6HR PCP: TRACE;

$$

IAZ062-063-075>077-085>089-095>099-290700-
   SOUTHEAST IOWA

CITY           SKY/WX    TMP DP  RH WIND       PRES   REMARKS
BURLINGTON     PTCLDY    73  71  93 E8        30.17S
6HR MIN TEMP:  70; 6HR MAX TEMP:  80;

FAIRFIELD *    PTCLDY    70  68  94 SW3       30.15F
FORT MADISON * CLOUDY    73  70  88 SE6       30.17F
KEOKUK *       CLEAR     72  70  94 CALM      30.16S
OSKALOOSA *      N/A     68  67  96 SW6       30.16F
CENTERVILLE *    N/A     70  70 100 CALM      30.18F
OTTUMWA        PTCLDY    69  67  93 S3        30.15F
6HR MIN TEMP:  69; 6HR MAX TEMP:  81;

WASHINGTON *     N/A     72  70  94 E5        30.18R
$$

ABBREVIATIONS USED IN REMARKS
   TC - TEMPERATURES IN CELSIUS
  WCI - WIND CHILL INDEX
   HX - HEAT INDEX
  VSB - VISIBILITY
$$





USA.gov is the U.S. government's official web portal to all federal, state and local government web resources and services.